Home   Weather   Tarlac City   Past weeks

Flag for Philippines Past Weather in Tarlac City, Philippines — Yesterday and Last 2 Weeks

Now
90 °F

Broken clouds.


Feels Like: 96 °F
Forecast: 76 / 90 °F
Wind: 7 mph from East

Location: Clarkfield Pampanga International Airport

Current Time: Nov 21, 2017 at 2:33:29 pm

Latest Report: Nov 21, 2017 at 1:00 pm


Visibility: N/A

Pressure: 29.86 "Hg

Humidity: 55%

Dew Point: 72 °F

Location of Tarlac CityLocation

Past Weather in Tarlac City — Graph

°F

Tarlac City Temperature Yesterday

Maximum temperature yesterday: 88 °F (at 2:00 pm)
Minimum temperature yesterday: 77 °F (at 3:00 am)
Average temperature yesterday: 81 °F

High & Low Weather Summary for the Past Weeks

 TemperatureHumidityPressure
High99 °F (Nov 13, 11:00 am)100% (Nov 10, 5:00 am)29.95 "Hg (Nov 10, 5:00 am)
Low73 °F (Nov 10, 1:00 am)42% (Nov 13, 11:00 am)29.74 "Hg (Nov 9, 3:00 pm)
Average82 °F77%29.85 "Hg
* Reported Nov 6 1:00 pm — Nov 21 1:00 pm, Tarlac City. Weather by CustomWeather, © 2017

Note: Actual official high and low records may vary slightly from our data, if they occured in-between our weather recording intervals... More about our weather records

Advertising

Tarlac City Weather History for the Previous 24 Hours

Scroll right to see more
 ConditionsComfort  
Time TempWeatherWind HumidityBarometerVisibility
1:00 pm
Tue, Nov 21
90 °FBroken clouds.7 mph55%29.86 "HgN/A
12:00 pm88 °FBroken clouds.3 mph59%29.89 "HgN/A
11:00 am86 °FScattered clouds.5 mph70%29.89 "HgN/A
10:00 am84 °FPartly sunny.9 mph74%29.92 "HgN/A
9:00 am82 °FPartly sunny.9 mph79%29.92 "HgN/A
8:00 am79 °FPartly sunny.8 mph89%29.92 "HgN/A
7:00 am79 °FPartly sunny.5 mph84%29.89 "HgN/A
6:00 am77 °FPassing clouds.3 mph89%29.89 "HgN/A
5:00 am77 °FPassing clouds.6 mph94%29.86 "HgN/A
4:00 am79 °FPassing clouds.6 mph84%29.86 "HgN/A
3:00 am79 °FPassing clouds.5 mph84%29.86 "HgN/A
2:00 am79 °FPassing clouds.6 mph84%29.89 "HgN/A
1:00 am79 °FPassing clouds.5 mph84%29.89 "HgN/A
12:00 am79 °FPassing clouds.5 mph84%29.92 "HgN/A
11:00 pm
Mon, Nov 20
81 °FPassing clouds.5 mph79%29.92 "HgN/A
10:00 pm81 °FPartly cloudy.5 mph79%29.92 "HgN/A
9:00 pm81 °FPassing clouds.2 mph79%29.92 "HgN/A
8:00 pm81 °FPassing clouds.2 mph84%29.92 "HgN/A
7:00 pm82 °FPassing clouds.3 mph79%29.89 "HgN/A
6:00 pm84 °FPassing clouds.3 mph74%29.86 "HgN/A
5:00 pm86 °FPartly sunny.3 mph70%29.83 "HgN/A
4:00 pm88 °FPartly sunny.5 mph66%29.83 "HgN/A
3:00 pm88 °FPartly sunny.9 mph66%29.83 "HgN/A
2:00 pm88 °FPartly sunny.6 mph62%29.86 "HgN/A
Weather by CustomWeather, © 2017

See weather overview